Regional Weather Roundup
Issued by NWS Upton, NY

Current Version | Previous Version | Graphics & Text | Print | Product List | Glossary Off
Versions: 1 2 3 4 5 6 7 8 9 10 11 12 13 14 15 16 17 18 19 20 21 22 23 24 25 26 27 28 29 30 31 32 33 34 35 36 37 38 39 40 41 42 43 44 45 46 47 48 49 50

000
ASUS41 KOKX 251808
RWROKX

REGIONAL WEATHER ROUNDUP
NATIONAL WEATHER SERVICE NEW YORK NY
200 PM EDT SUN SEP 25 2016

NOTE: "FAIR" INDICATES FEW OR NO CLOUDS BELOW 12,000 FEET WITH NO
SIGNIFICANT WEATHER AND/OR OBSTRUCTIONS TO VISIBILITY.

NYZ071-072-176-178-NJZ106-104-251900-
NEW YORK CITY METRO AREA

CITY           SKY/WX    TMP DP  RH WIND       PRES   REMARKS
Central Park   SUNNY     68  36  30 VRB6      30.19F
LaGuardia APRT SUNNY     67  31  26 N13       30.16F
Kennedy INTL   MOSUNNY   68  34  28 N7        30.17F
Newark/Liberty MOSUNNY   69  35  28 NW10G17   30.16F
Bronx Bot Gard   N/A     64  32  29 N7        30.20R
Wall St Helipt CLEAR     72  45  37 E7        30.17F
Teterboro      SUNNY     70  30  22 N9        30.16F
$$

NYZ177-179-078>081-251900-
LONG ISLAND NEW YORK

CITY           SKY/WX    TMP DP  RH WIND       PRES   REMARKS
Farmingdale    SUNNY     67  33  28 N12       30.16F
MacArthur/ISP  SUNNY     65  33  30 NW12G21   30.14F
Shirley        SUNNY     65  36  34 NW8       30.15F
Riverhead      NOT AVBL
Westhampton    SUNNY     65  33  30 W9        30.16F
Southampton      N/A     66  41  39 N7        30.10F
Bridgehampton    N/A     64  41  42 N5        29.99F
East Hampton   FAIR      63  35  35 NW12G20   30.13F
Montauk          N/A     64  38  38 NW8       30.14F
$$

NYZ052-065-067-251900-
HUDSON VALLEY

CITY           SKY/WX    TMP DP  RH WIND       PRES   REMARKS
White Plains   SUNNY     65  33  30 NW8       30.16F
Newburgh       SUNNY     66  36  32 NE7G20    30.18F
Montgomery     SUNNY     67  37  33 CALM      30.16F
Poughkeepsie   SUNNY     64  32  30 VRB6G21   30.16F
Albany         MOSUNNY   63  38  39 CALM      30.18F
$$

NJZ001-105-106-008-010-013-015-019>022-104-251900-
NEW JERSEY

CITY           SKY/WX    TMP DP  RH WIND       PRES   REMARKS
Newark/Liberty MOSUNNY   69  35  28 NW10G17   30.16F
Teterboro      SUNNY     70  30  22 N9        30.16F
Caldwell       SUNNY     68  35  29 VRB5      30.17F
Morristown     SUNNY     68  39  34 N8        30.17F
Somerville     SUNNY     70  31  23 VRB6      30.15F
Linden         NOT AVBL
Sussex         SUNNY     67  40  37 VRB6      30.17F
Abdover          N/A     65  37  35 NE7       30.18F
Trenton        SUNNY     68  40  35 VRB6      30.16F
Millville      SUNNY     69  41  36 CALM      30.18F
Atlantic City  SUNNY     70  41  34 E7        30.17F
Wrightstown    SUNNY     69  42  37 VRB2      30.14F
Toms River     SUNNY     68  42  38 NW7       30.17F
Belmar         SUNNY     67  38  34 N5        30.17F
$$

PAZ047>061-062-071-251900-
EASTERN PENNSYLVANIA

CITY           SKY/WX    TMP DP  RH WIND       PRES   REMARKS
Philadelphia   MOSUNNY   69  40  34 VRB5      30.17F
Allentown      SUNNY     69  44  40 SW6       30.17F
Scranton       SUNNY     64  42  44 CALM      30.19F
$$

CTZ002-004>006-009-010-012-RIZ004-006-007-MAZ004-011-015-251900-
SOUTHERN NEW ENGLAND
 IN CT

CITY           SKY/WX    TMP DP  RH WIND       PRES   REMARKS
Bradley INTL   SUNNY     66  34  30 N10G21    30.13F
Hartford       SUNNY     67  34  29 N15       30.12F
Danbury        SUNNY     65  32  29 NW8       30.16F
Wtrbury/Oxford SUNNY     64  32  29 NW14G20   30.16F
Bridgeport     SUNNY     69  35  28 NW12G20   30.14F
Meriden        SUNNY     70  33  25 NW9       30.12F
New Haven      SUNNY     66  34  30 NW8       30.13F
Chester        FAIR      64  34  32 NW8G17    30.13F
Groton         SUNNY     67  37  33 NW13      30.11F
Wilimantic     SUNNY     67  36  31 N8G16     30.12F

 IN RI

CITY           SKY/WX    TMP DP  RH WIND       PRES   REMARKS
Providence     MOSUNNY   66  32  28 NW18G25   30.10F
Block Island   SUNNY     63  40  42 N7        30.12F
Westerly       SUNNY     67  35  30 W7        30.12F
 IN MA

CITY           SKY/WX    TMP DP  RH WIND       PRES   REMARKS
Boston         MOSUNNY   65  32  29 NW16G25   30.09F
Worcester      SUNNY     60  32  34 NW17G32   30.11F
Westfield      SUNNY     65  34  31 NW16G28   30.12F
Provincetown   SUNNY     62  40  44 NW13      30.10F
Nantucket      SUNNY     61  37  41 N16G23    30.09F
$$

ANZ330-335-338-340-345-350-353-355-251900-
COASTAL MARINE OBSERVATIONS


STATION/POSITION TIME  SKY/WX   TEMP    WIND        PRES    VSBY  WAVE
                                AIR SEA DIR/SP/G                  HT/PER
                 (UTC)          (F)     (DEG/KT/KT) (MB)    (MI)  (FT/S)
NY HARB ENTRANCE 1750            62 71  360/  6/ 12 1021.5          3/10
20S FIRE ISLAND  1750            61 69  360/  8/ 14 1021.1          5/11
GREAT SOUTH BAY  1730            63 71  330/  8/ 12   N/A
23 SSW MONTAUK P 1750            60 68  300/ 12/ 16 1020.8          4/10
15 E BARNEGAT LI 1730               71                N/A           5/10
HUDSON CANYON    1650            62 69              1021.5          5/11
KINGS POINT      1736            63 73              1021.5
EXECUTION ROCKS  1745            66     320/  6/ 12   N/A
CENTRAL LI SOUND 1715            62 73  310/ 10/ 14   N/A           1
EASTERN LI SOUND NOT AVBL
ROBBINS REEF     1736            64      20/  6/  9 1021.7
$$


>>>>>>>>>>>>>>>>>>>>>>>>>>>> KEY <<<<<<<<<<<<<<<<<<<<<<<<<<<
>                                                          <
>     SKY/WX - Sky Condition/Present Weather               <
>     TMP    - Temperature in Fahrenheit                   <
>     DP     - Dew Point in Fahrenheit                     <
>     RH     - Relative Humidity in Percent                <
>     WIND   - Direction (from) and Speed in MPH           <
>     PRES   - Mean Sea Level Pressure (inches of Hg)      <
>     WCI    - Wind Chill Index                            <
>     VSB    - VISIBILITY IN MILES                         <
>     HX     - HEAT INDEX                                  <
>     TC     - TEMPERATURE IN CELSIUS                      <
>     VRB    - VARIABLE WIND DIRECTION                     <
>                                                          <
>>>>>>>>>>>>>>>>>>>>>>>>>>>> KEY <<<<<<<<<<<<<<<<<<<<<<<<<<<



USA.gov is the U.S. government's official web portal to all federal, state and local government web resources and services.